Temperature
28 25 25 25 26 26 27 26 26 27 28 26 25 24 24 25 25 24 24 23 23 23 23 22 22 21 21 21 20 20 20 20 20 20 19 19 19 19 19 19 19 19 18 18
25 25 26 27 28 28 27 26 26 27 28 27 25 24 24 25 24 24 24 23 23 23 22 22 22 22 21 21 21 20 20 20 20 20 20 19 19 19 19 19 19 18 19 19
25 26 28 29 28 28 27 27 27 27 27 26 25 24 24 25 25 25 25 24 24 23 23 22 22 22 22 21 21 21 20 20 20 20 20 19 19 19 19 19 19 19 19 19
26 27 29 29 28 28 27 28 29 28 26 24 25 23 23 23 24 24 25 24 24 23 23 23 22 22 22 22 21 21 21 20 20 20 20 20 19 19 19 19 19 19 18 18
26 28 28 28 29 29 28 29 29 28 26 24 24 23 23 23 23 23 24 24 24 24 23 23 23 23 22 22 22 21 21 21 20 20 20 20 20 20 19 19 19 19 18 18
27 28 28 29 29 30 29 28 27 25 23 23 24 23 23 22 23 24 24 24 24 24 23 23 23 23 23 22 22 21 21 21 20 20 20 20 20 19 19 19 19 19 19 18
26 27 28 29 29 29 27 24 23 24 22 22 23 23 23 24 25 25 25 25 24 24 24 23 23 23 23 22 22 22 21 21 21 20 20 20 20 20 19 19 19 19 19 18
25 25 27 29 28 27 27 24 23 24 23 23 23 23 24 25 26 26 26 25 25 24 24 24 24 23 23 23 22 22 22 21 21 21 20 20 20 19 19 19 19 19 19 18
24 25 28 29 29 28 27 25 23 22 22 22 22 23 24 25 25 25 25 25 24 24 24 24 24 23 23 23 22 22 22 21 21 21 20 20 20 20 19 19 19 19 19 18
25 25 26 28 29 28 27 25 22 22 22 22 23 23 22 24 24 24 23 24 24 24 24 24 24 24 23 23 22 22 22 22 21 21 20 20 20 20 19 19 19 19 19 18
24 24 25 26 27 27 27 26 23 20 21 22 22 22 24 23 23 23 23 24 24 24 24 24 24 24 23 23 22 22 22 21 21 21 20 20 20 20 19 19 19 19 19 18
23 22 23 24 26 27 27 25 23 23 22 21 21 22 24 24 24 24 24 24 24 24 24 24 24 23 23 22 22 22 22 21 21 21 20 20 20 19 19 19 19 19 18 18
24 21 22 23 23 25 26 25 23 22 20 20 21 23 24 23 23 24 23 24 24 24 24 24 23 23 23 22 22 22 22 21 21 21 20 20 19 19 19 19 19 18 18 18
24 21 21 23 23 24 25 26 25 22 21 21 22 22 22 22 22 22 23 23 23 23 23 23 23 23 23 22 22 22 22 21 21 21 20 20 19 19 19 19 18 18 18 18
22 22 23 23 24 26 26 26 26 24 23 22 22 22 22 22 22 23 23 23 23 22 22 23 22 22 22 22 22 22 21 21 21 20 20 20 19 19 19 18 18 18 18 18
20 21 22 23 25 25 25 25 25 25 24 23 23 22 22 22 23 22 22 22 22 22 22 22 22 22 22 22 22 21 21 21 20 20 20 20 19 19 19 18 18 18 18 17
19 20 20 21 23 24 23 24 24 24 24 23 22 22 21 21 21 22 22 22 22 22 22 22 22 22 22 21 21 21 21 21 20 20 20 19 19 19 19 18 18 18 17 17
19 19 18 19 22 22 22 23 24 23 23 23 22 21 21 21 22 22 23 22 22 22 22 22 22 22 21 21 21 21 21 20 20 20 19 19 19 19 18 18 18 17 17 17
19 19 18 18 20 21 22 23 23 22 22 22 21 21 21 21 21 21 22 22 22 22 22 22 22 21 21 21 21 20 20 20 20 19 19 19 18 18 18 18 17 17 17 17
18 18 18 18 20 20 21 22 23 22 21 21 21 20 21 21 19 19 21 22 22 22 22 21 21 21 21 20 20 20 20 19 19 19 19 18 18 18 18 18 17 17 17 17
19 18 18 18 19 19 20 22 23 21 20 21 21 21 21 20 20 21 21 21 21 21 21 21 21 20 20 20 19 19 19 19 19 19 18 18 18 17 17 17 17 17 16 16
17 17 17 17 18 19 20 21 20 19 20 21 21 21 21 21 21 21 21 21 20 20 20 20 20 20 19 19 19 19 19 18 18 18 18 18 17 17 17 17 17 17 16 16
17 17 16 16 17 18 20 20 21 21 20 20 20 20 20 20 20 20 20 20 20 20 19 19 19 19 19 19 18 18 18 18 18 18 17 17 17 17 16 16 16 16 16 16
17 16 16 16 17 18 19 20 20 21 20 20 20 20 20 19 19 19 19 19 19 18 19 18 19 18 18 18 18 18 18 17 17 17 17 17 16 16 16 16 16 16 16 16
16 16 15 16 16 17 19 19 20 20 20 19 19 20 19 19 18 18 18 18 18 18 18 18 18 17 17 17 17 17 17 17 17 17 17 16 16 16 16 16 16 16 15 15
15 16 15 15 16 16 17 19 19 19 19 19 19 18 18 18 18 18 17 17 17 17 17 17 17 17 17 17 17 17 17 16 16 16 16 16 16 16 15 15 15 15 15 15
Wind_Speed
2 3 4 9 9 9 7 5 5 6 4 4 6 7 10 12 12 12 12 13 13 13 11 12 13 12 9 8 8 8 7 6 4 3 3 3 2 1 1 1 3 5 5 5
2 6 12 9 8 7 6 4 5 4 4 4 5 7 9 11 14 15 16 15 15 12 11 12 12 12 11 10 9 8 8 7 6 4 4 3 3 2 2 1 2 4 4 5
9 9 8 7 7 7 7 8 8 6 1 3 5 1 5 6 7 10 14 15 16 18 18 16 14 13 12 12 11 10 9 7 6 5 4 3 2 2 1 1 1 1 4 4
7 8 6 6 8 6 7 10 8 7 4 3 5 4 7 8 7 9 11 14 16 17 16 16 15 14 14 13 11 9 9 8 6 6 6 6 4 4 3 3 2 2 3 4
6 5 6 7 9 7 8 7 6 6 5 1 0 3 5 4 7 10 12 15 16 17 18 18 18 17 15 13 12 10 9 8 7 7 7 7 5 3 3 3 3 2 1 2
8 6 6 8 8 6 3 1 3 3 4 0 4 4 5 6 12 10 11 13 14 14 15 15 15 14 13 12 11 10 10 8 7 7 7 7 7 5 5 4 4 3 1 1
6 8 6 4 3 4 2 4 3 4 4 4 3 3 7 9 11 12 12 13 13 13 14 13 14 14 14 14 13 12 11 9 8 8 7 7 7 7 6 5 5 4 2 2
3 8 6 4 6 6 4 8 7 5 5 4 2 4 7 7 8 9 10 12 11 11 12 14 14 15 15 15 14 13 12 10 9 8 8 6 6 5 4 5 5 4 4 3
6 7 7 5 4 7 4 3 8 7 3 1 3 4 6 2 2 6 8 9 10 11 11 13 12 13 12 13 13 13 13 11 10 9 8 7 6 6 5 5 4 4 3 3
7 4 6 5 2 1 7 7 6 5 4 2 3 4 4 3 3 5 8 10 10 10 10 11 13 13 12 11 11 11 12 12 10 9 9 8 6 6 6 5 5 4 4 3
5 4 6 4 1 4 0 3 5 4 6 6 4 6 6 9 9 9 9 10 11 11 11 12 12 13 12 10 10 11 11 9 9 9 8 7 7 6 6 5 5 5 4 4
4 5 4 7 6 4 5 5 7 5 4 6 5 6 5 5 6 8 8 8 8 9 10 10 10 10 10 10 10 10 11 10 10 9 8 7 6 6 6 5 5 5 4 4
4 6 1 7 7 5 1 1 3 5 4 5 5 5 2 2 3 6 9 8 6 6 7 8 9 9 10 10 10 10 10 10 9 9 8 7 6 6 6 5 4 4 5 4
4 5 7 8 7 4 3 3 1 4 3 4 6 6 2 2 4 5 7 8 7 7 7 7 8 8 9 9 9 8 8 9 9 8 8 7 7 7 6 5 5 5 5 5
5 3 4 5 4 1 1 3 2 2 6 7 8 9 9 8 7 7 7 7 8 6 6 7 7 7 7 7 7 7 8 7 8 8 8 8 7 6 6 5 5 4 5 5
4 3 1 1 1 2 2 3 1 1 2 5 5 5 6 6 6 6 6 7 8 7 7 6 7 7 8 8 8 7 7 7 7 8 8 7 7 7 6 6 5 5 4 4
1 3 2 2 3 3 3 3 0 0 1 5 6 6 5 6 8 8 8 8 9 9 8 7 7 8 8 8 8 8 7 6 7 8 7 7 7 7 7 7 6 5 5 4
4 3 3 2 3 3 7 2 3 4 1 1 4 5 8 9 8 6 7 9 8 8 8 7 6 6 5 5 6 6 6 6 6 6 6 6 6 7 6 6 6 5 4 5
7 7 4 3 3 4 5 3 1 3 2 1 4 6 6 6 6 2 2 6 8 8 8 6 6 6 6 6 6 6 5 5 6 6 6 6 6 7 6 6 6 5 4 4
4 6 5 4 4 5 6 4 1 6 1 4 3 6 6 5 3 3 3 5 6 6 6 6 6 6 6 5 6 6 5 5 5 5 5 5 5 6 6 6 5 4 4 4
3 3 4 4 4 4 5 5 3 4 5 4 3 5 4 3 5 5 4 5 6 6 6 7 7 6 5 5 6 5 4 4 4 4 4 4 4 5 5 4 4 4 3 3
2 2 2 3 3 5 5 2 3 5 3 2 3 5 5 3 5 6 6 6 6 6 6 6 6 5 4 5 6 5 4 4 4 4 4 4 4 4 4 4 3 4 4 3
2 4 4 5 5 4 1 3 3 5 4 3 4 4 6 5 5 6 6 6 5 6 6 5 6 5 4 4 5 5 3 3 4 4 3 3 2 2 3 4 4 3 3 3
3 1 3 2 0 1 2 3 3 6 6 4 5 5 6 5 5 6 6 5 5 5 6 5 6 6 4 3 4 4 3 3 4 3 3 3 2 2 1 2 3 3 3 4
4 1 2 1 2 2 3 2 3 5 6 7 5 5 6 6 4 5 5 5 5 4 4 5 5 5 4 4 3 2 3 4 4 3 2 2 2 2 2 2 2 3 4 5
3 3 4 5 6 4 3 1 3 6 6 6 6 5 5 5 5 4 4 3 4 4 4 5 5 4 4 3 3 2 3 4 4 3 2 2 2 2 2 2 1 1 2 2
Wind_Direction
239 115 227 231 209 202 205 217 238 245 210 158 177 175 180 185 181 177 176 174 175 178 178 170 166 165 162 161 160 161 159 165 152 139 140 139 149 151 135 157 155 153 153 147
355 242 232 232 236 218 211 215 245 255 219 162 178 196 194 189 191 187 182 180 179 174 169 172 171 169 169 173 169 167 169 170 167 166 165 161 158 167 160 142 135 146 141 144
212 236 236 235 242 226 229 209 214 210 188 111 125 216 213 212 203 197 189 183 177 175 174 177 179 179 175 178 178 177 176 170 168 160 139 127 98 80 78 113 138 147 145 147
238 243 243 247 245 213 233 223 204 192 153 209 157 199 236 204 205 202 195 187 183 181 179 180 181 181 182 183 180 175 173 170 168 158 150 150 155 166 190 178 169 171 153 147
243 232 234 243 242 221 230 222 192 195 169 147 101 153 266 182 209 211 200 193 190 185 184 184 185 185 185 182 179 175 171 173 171 164 163 162 165 175 171 157 154 169 172 153
245 251 218 228 247 225 214 25 20 54 81 267 239 168 250 207 211 206 197 193 188 186 185 186 186 180 181 179 177 174 172 180 178 171 167 168 167 164 156 164 170 180 181 174
288 286 268 238 270 311 63 88 25 358 12 251 248 168 237 223 204 195 190 193 190 188 185 184 183 181 181 179 178 176 176 181 182 177 177 176 173 169 173 178 179 179 180 185
226 278 263 235 201 213 220 150 166 198 214 256 297 218 249 243 203 192 183 182 179 180 184 186 186 185 183 181 179 177 180 182 182 181 183 177 170 171 176 177 178 184 189 190
192 246 271 265 218 175 190 186 173 149 166 175 280 281 310 345 115 154 159 165 176 181 180 181 180 179 178 179 181 180 179 180 183 183 179 177 174 172 174 177 174 178 183 185
171 237 276 276 355 241 169 163 98 115 149 218 283 271 241 233 214 159 161 172 180 180 177 179 179 178 180 181 183 180 181 183 183 182 183 184 185 181 178 173 177 181 184 179
162 179 294 349 212 227 133 113 115 128 152 157 211 259 234 206 191 173 172 175 178 177 179 179 177 178 175 171 174 179 181 179 178 181 183 180 184 185 176 176 184 184 179 170
167 146 242 264 260 221 180 174 148 157 209 166 171 254 261 197 167 155 157 161 170 179 176 170 165 164 164 168 175 183 184 182 183 181 177 179 178 177 177 181 183 176 171 168
141 123 110 331 339 354 16 210 155 140 131 154 161 249 309 114 113 143 144 147 153 158 160 158 158 163 166 169 175 180 182 183 180 174 171 170 173 180 185 183 180 172 167 164
125 122 163 198 222 243 289 294 203 123 150 191 198 202 232 176 151 147 143 149 153 150 146 147 154 164 167 169 169 169 172 174 169 167 170 172 180 185 186 175 170 168 165 162
82 134 184 204 210 186 311 298 298 210 192 186 202 187 198 194 179 167 152 143 141 144 149 155 158 161 156 156 159 165 169 166 168 169 173 180 182 181 177 172 168 167 168 173
52 111 109 308 347 39 355 315 328 275 198 167 165 210 204 172 151 143 147 147 151 158 162 155 156 158 159 159 159 161 169 169 168 175 182 180 176 174 177 177 171 168 173 175
47 96 87 274 307 37 312 270 152 1 183 162 182 211 159 140 158 162 160 152 160 167 168 162 162 168 166 164 160 162 168 164 169 178 177 174 174 176 179 175 170 181 185 176
159 118 130 148 71 218 239 261 102 94 9 143 156 154 155 160 159 158 166 161 167 161 163 165 157 151 152 148 142 151 154 158 165 172 171 172 173 174 173 170 175 183 181 181
161 147 136 136 170 250 297 316 86 119 343 351 136 139 128 119 93 76 187 159 160 157 156 156 151 141 134 137 141 133 144 152 155 163 167 171 170 171 171 177 184 187 182 188
104 119 131 140 156 212 246 283 341 101 15 308 135 142 142 121 126 219 185 138 137 138 140 138 131 122 125 135 134 130 146 150 160 167 169 168 166 165 171 181 186 185 184 198
48 69 135 154 183 236 260 293 48 116 224 256 159 144 134 156 185 182 147 129 128 128 128 130 127 129 135 137 129 139 151 170 173 156 146 154 164 169 173 177 179 180 185 192
157 141 164 145 164 239 283 37 129 200 216 167 131 125 109 117 130 132 129 123 123 124 128 129 131 132 129 134 135 142 170 176 150 144 153 168 179 188 182 176 187 181 177 192
162 180 176 176 200 238 294 139 151 129 109 105 108 112 110 108 115 120 119 117 120 124 128 127 129 123 117 124 137 149 175 157 147 149 165 180 189 196 190 183 191 186 182 194
315 54 103 84 329 347 24 65 86 106 103 94 112 115 108 103 103 104 108 108 112 117 121 123 123 120 117 119 130 158 160 143 140 155 174 172 175 194 215 209 199 197 203 207
263 339 98 145 227 32 16 48 77 75 91 94 83 92 104 105 105 113 115 124 129 127 127 129 133 134 132 122 125 127 136 138 144 162 175 178 193 201 214 225 219 212 218 206
246 200 175 202 200 173 222 245 93 92 99 113 106 85 89 114 122 113 120 123 119 117 117 120 119 116 120 127 124 112 118 134 140 152 170 183 194 205 202 222 284 276 225 238
Height
1487 1494 1500 1496 1495 1496 1499 1504 1507 1501 1493 1499 1504 1506 1506 1507 1509 1510 1512 1514 1515 1517 1520 1523 1525 1527 1529 1531 1532 1533 1534 1535 1536 1537 1537 1538 1538 1539 1539 1539 1539 1539 1539 1540
1493 1497 1487 1485 1486 1490 1495 1503 1504 1498 1492 1498 1504 1505 1502 1504 1505 1506 1507 1510 1512 1515 1518 1521 1523 1525 1527 1529 1531 1532 1533 1534 1535 1536 1537 1538 1538 1539 1539 1539 1540 1540 1540 1540
1495 1488 1480 1483 1487 1491 1495 1498 1499 1499 1495 1496 1505 1512 1508 1503 1503 1504 1506 1507 1509 1511 1514 1518 1520 1522 1524 1526 1528 1530 1532 1533 1534 1535 1536 1537 1538 1538 1538 1539 1539 1539 1540 1540
1486 1480 1479 1482 1485 1486 1497 1484 1486 1491 1503 1513 1509 1529 1512 1504 1504 1503 1504 1505 1507 1509 1511 1514 1517 1519 1521 1524 1526 1528 1530 1532 1533 1534 1535 1536 1536 1536 1537 1538 1539 1539 1539 1539
1485 1477 1479 1482 1479 1479 1483 1477 1482 1487 1500 1512 1511 1523 1516 1505 1506 1502 1501 1502 1504 1505 1508 1510 1512 1515 1519 1522 1524 1526 1529 1530 1532 1533 1534 1535 1535 1536 1537 1537 1538 1539 1539 1539
1477 1471 1472 1473 1470 1471 1474 1480 1486 1494 1507 1525 1515 1521 1519 1506 1499 1496 1497 1499 1501 1503 1505 1508 1511 1513 1516 1520 1522 1524 1526 1528 1530 1531 1532 1533 1534 1535 1536 1536 1537 1538 1538 1538
1482 1473 1468 1467 1473 1473 1477 1498 1521 1525 1534 1531 1511 1515 1511 1490 1486 1487 1490 1494 1497 1500 1502 1505 1508 1511 1514 1516 1519 1521 1524 1526 1528 1529 1531 1532 1533 1534 1534 1535 1536 1536 1536 1537
1494 1492 1471 1466 1471 1478 1480 1494 1521 1534 1537 1528 1513 1514 1498 1480 1479 1481 1484 1488 1493 1496 1499 1502 1504 1507 1510 1512 1515 1518 1521 1523 1525 1527 1528 1530 1531 1532 1533 1534 1534 1535 1535 1535
1491 1489 1466 1462 1461 1467 1480 1489 1492 1511 1519 1527 1521 1507 1492 1479 1479 1481 1484 1487 1491 1493 1496 1498 1502 1505 1508 1511 1513 1515 1518 1520 1523 1525 1526 1528 1529 1530 1531 1532 1533 1533 1534 1534
1474 1484 1471 1462 1460 1463 1469 1477 1496 1511 1527 1535 1524 1514 1507 1489 1484 1482 1483 1486 1488 1491 1494 1496 1498 1502 1505 1509 1511 1514 1516 1518 1520 1522 1524 1525 1527 1528 1529 1530 1530 1531 1532 1532
1467 1482 1478 1470 1471 1474 1473 1479 1490 1506 1511 1527 1533 1519 1485 1481 1478 1480 1481 1483 1485 1488 1491 1493 1495 1499 1503 1507 1509 1512 1514 1516 1518 1520 1521 1523 1524 1525 1526 1527 1528 1529 1529 1530
1465 1479 1488 1477 1465 1461 1465 1473 1486 1503 1509 1513 1520 1511 1476 1475 1475 1476 1480 1482 1485 1487 1489 1491 1494 1498 1502 1504 1507 1509 1511 1513 1515 1517 1519 1520 1522 1523 1524 1525 1525 1526 1527 1527
1463 1479 1496 1492 1483 1470 1469 1470 1476 1486 1500 1511 1516 1505 1476 1475 1476 1477 1479 1482 1485 1486 1488 1491 1493 1496 1499 1501 1504 1506 1507 1509 1512 1514 1516 1518 1519 1521 1521 1522 1523 1524 1525 1525
1457 1475 1488 1496 1490 1477 1475 1471 1471 1483 1500 1504 1500 1493 1482 1478 1477 1478 1479 1481 1483 1486 1487 1489 1491 1494 1496 1499 1501 1503 1505 1507 1509 1511 1513 1515 1516 1518 1519 1519 1521 1522 1522 1523
1458 1474 1473 1473 1469 1467 1468 1469 1468 1475 1481 1490 1487 1485 1479 1475 1475 1476 1478 1480 1482 1485 1487 1488 1490 1492 1494 1497 1498 1500 1503 1505 1507 1509 1510 1512 1514 1515 1516 1517 1519 1520 1521 1521
1463 1471 1472 1472 1466 1466 1469 1467 1467 1468 1470 1475 1477 1479 1471 1471 1473 1475 1477 1478 1480 1483 1485 1487 1489 1491 1493 1495 1496 1498 1500 1502 1504 1506 1508 1510 1511 1512 1514 1515 1516 1517 1518 1519
1467 1473 1481 1484 1472 1471 1481 1470 1468 1469 1467 1470 1477 1474 1469 1471 1472 1473 1475 1476 1478 1481 1483 1485 1486 1489 1491 1493 1495 1496 1498 1501 1503 1504 1505 1507 1508 1509 1510 1512 1513 1515 1516 1517
1466 1473 1483 1486 1481 1493 1480 1462 1461 1465 1467 1465 1465 1465 1466 1467 1469 1472 1473 1474 1477 1479 1482 1484 1485 1488 1490 1492 1493 1496 1498 1499 1500 1502 1503 1504 1505 1506 1508 1509 1510 1511 1513 1514
1456 1468 1481 1490 1492 1486 1472 1464 1463 1467 1471 1465 1464 1465 1466 1468 1471 1474 1474 1474 1476 1478 1480 1482 1484 1486 1489 1491 1493 1495 1496 1497 1498 1499 1500 1502 1503 1504 1505 1506 1507 1509 1510 1511
1456 1461 1476 1486 1489 1493 1477 1462 1458 1462 1475 1466 1464 1465 1466 1468 1475 1475 1474 1474 1476 1478 1480 1481 1484 1486 1488 1490 1492 1493 1494 1495 1496 1498 1499 1500 1501 1502 1503 1504 1505 1506 1507 1508
1467 1471 1476 1482 1486 1480 1465 1459 1458 1477 1477 1465 1464 1464 1465 1467 1469 1470 1472 1473 1474 1477 1479 1481 1483 1484 1486 1488 1490 1492 1493 1494 1495 1497 1498 1498 1499 1500 1501 1501 1502 1503 1504 1505
1471 1476 1478 1481 1486 1483 1460 1459 1464 1467 1462 1463 1463 1463 1465 1466 1467 1468 1470 1471 1473 1475 1478 1480 1481 1483 1485 1487 1489 1490 1492 1493 1494 1495 1496 1497 1497 1498 1499 1499 1500 1500 1501 1502
1467 1468 1470 1473 1474 1464 1459 1458 1460 1459 1461 1462 1462 1463 1465 1465 1466 1467 1469 1471 1472 1474 1476 1478 1480 1483 1485 1486 1488 1489 1490 1491 1492 1493 1494 1495 1496 1496 1496 1496 1497 1497 1498 1499
1464 1461 1464 1467 1465 1462 1461 1460 1460 1459 1459 1461 1462 1463 1464 1465 1467 1467 1469 1471 1472 1474 1476 1478 1480 1481 1483 1485 1486 1487 1488 1490 1490 1491 1492 1492 1493 1493 1494 1494 1495 1495 1495 1495
1464 1462 1464 1466 1464 1462 1462 1462 1461 1461 1461 1462 1463 1463 1464 1465 1467 1468 1469 1471 1472 1474 1476 1478 1479 1479 1481 1483 1484 1485 1486 1487 1488 1489 1489 1490 1490 1491 1491 1492 1492 1492 1492 1493
1461 1461 1463 1465 1461 1462 1462 1462 1462 1462 1463 1463 1463 1464 1465 1466 1467 1467 1469 1470 1471 1473 1474 1476 1478 1478 1480 1481 1482 1484 1484 1485 1486 1486 1487 1487 1488 1488 1488 1489 1489 1489 1490 1490